Volver al catálogo

DELTA 1 DEB

LostUNKNOWN
NORAD 28665·DEBRIS·🇺🇸 United States

Lanzado Jul 4, 1968 desde Vandenberg Space Force Base

Loading…

Próximos Pases (próximas 24 horas)

TLE

ObsoletoSource: Space-Track

Época: Apr 27, 2022, 23:22 UTC

1 28665U 68055N   22117.97388513  .00013837  00000-0  12107-1 0  9992
2 28665 120.6356 118.6398 1051442 175.0446 186.1894 12.46065057770818

Sigue DELTA 1 DEB en tiempo real con AllMySat

Download on the App Store